Weather History for Wellsville, NY

Change the Weather History Date:

Monday, April 7, 2014

  Actual Average (KBFD) Record (KBFD)
Temperature  
Mean Temperature 40 °F 41 °F  
Max Temperature 44 °F 51 °F 79 °F (1991)
Min Temperature 37 °F 30 °F 6 °F (1982)
Degree Days  
Heating Degree Days 24 19  
Month to date heating degree days 143  
Since 1 July heating degree days 6750  
Cooling Degree Days 0 0  
Month to date cooling degree days 0  
Year to date cooling degree days 0  
Moisture  
Dew Point 31 °F    
Average Humidity 74    
Maximum Humidity 93    
Minimum Humidity 34    
Precipitation  
Precipitation 0.60 in 0.12 in 0.84 in (1983)
Month to date precipitation 0.85  
Year to date precipitation 9.86  
Sea Level Pressure  
Sea Level Pressure 29.76 in    
Wind  
Wind Speed 12 mph (SSE)    
Max Wind Speed 23 mph    
Max Gust Speed 37 mph    
Visibility 8 miles    
Events Rain , Thunderstorm    
T = Trace of Precipitation, MM = Missing Value Source: NWS Daily Summary

Daily Weather History Graph

Daily Weather History Graph

Search for Another Location

Airport:

Trip Planner

Search our weather history database for the weather conditions in past years. The results will help you decide how hot, cold, wet, or windy it might be!

Date:

Astronomy

Apr. 07, 2014 Rise Set
Actual Time 6:44 AM EDT 7:44 PM EDT
Civil Twilight 6:15 AM EDT 8:12 PM EDT
Nautical Twilight 5:41 AM EDT 8:47 PM EDT
Astronomical Twilight 5:06 AM EDT 9:22 PM EDT
Moon 12:35 PM EDT (4/7) 2:23 AM EDT (4/7)
Length of Visible Light 13h 56m
Length of Day
12h 59m
First Quarter, 53% of the Moon is Illuminated
Apr 7
First Quarter
Apr 15
Full
Apr 22
Last Quarter
Apr 29
New
May 6
First Quarter

Hourly Weather History & Observations

Time (EDT) Temp. Windchill Dew Point Humidity Pressure Visibility Wind Dir Wind Speed Gust Speed Precip Events Conditions
1:56 AM 42.1 °F 37.7 °F 17.1 °F 37% 30.09 in 10.0 mi South 6.9 mph - N/A   Clear
2:56 AM 41.0 °F 35.2 °F 18.0 °F 40% 30.08 in 10.0 mi South 9.2 mph - N/A   Clear
3:56 AM 41.0 °F 35.2 °F 19.0 °F 41% 30.06 in 10.0 mi SSE 9.2 mph - N/A   Clear
4:56 AM 39.9 °F 33.9 °F 19.0 °F 43% 30.03 in 10.0 mi SSE 9.2 mph - N/A   Clear
5:56 AM 39.9 °F 33.9 °F 18.0 °F 41% 30.02 in 10.0 mi SSE 9.2 mph - N/A   Clear
6:56 AM 39.9 °F 34.5 °F 17.1 °F 40% 30.03 in 10.0 mi SSE 8.1 mph - N/A   Clear
7:56 AM 42.1 °F 36.6 °F 17.1 °F 37% 30.03 in 10.0 mi SSE 9.2 mph - N/A   Clear
8:56 AM 43.0 °F 37.2 °F 18.0 °F 37% 30.00 in 10.0 mi SSE 10.4 mph - N/A   Clear
9:56 AM 44.1 °F 38.6 °F 18.0 °F 35% 30.00 in 10.0 mi South 10.4 mph 23.0 mph N/A   Clear
10:56 AM 44.1 °F 36.8 °F 17.1 °F 34% 29.99 in 10.0 mi SSE 16.1 mph 24.2 mph N/A   Mostly Cloudy
12:56 PM 42.1 °F 36.1 °F 23.0 °F 47% 29.97 in 10.0 mi SE 10.4 mph - 0.00 in Rain Light Rain
1:56 PM 37.0 °F 30.4 °F 33.1 °F 86% 29.95 in 6.0 mi SE 9.2 mph - 0.08 in Rain Rain
2:45 PM 37.0 °F 31.0 °F 35.1 °F 93% 29.87 in 5.0 mi ESE 8.1 mph - 0.10 in Rain Rain
2:56 PM 37.0 °F 30.4 °F 34.0 °F 89% 29.91 in 6.0 mi ESE 9.2 mph - 0.12 in Rain Rain
3:03 PM 37.0 °F 29.8 °F 35.1 °F 93% 29.86 in 5.0 mi ESE 10.4 mph - 0.01 in Rain Rain
3:10 PM 37.0 °F 29.8 °F 35.1 °F 93% 29.86 in 5.0 mi ESE 10.4 mph - 0.02 in Rain Rain
3:56 PM 37.9 °F 28.9 °F 35.1 °F 89% 29.86 in 10.0 mi SE 16.1 mph - 0.06 in Rain Light Rain
4:56 PM 37.9 °F 28.9 °F 35.1 °F 89% 29.79 in 7.0 mi SE 16.1 mph 23.0 mph 0.05 in Rain Light Rain
5:56 PM 39.0 °F 30.6 °F 36.0 °F 89% 29.73 in 8.0 mi SE 15.0 mph 25.3 mph 0.00 in Rain Light Rain
6:56 PM 39.0 °F 30.6 °F 36.0 °F 89% 29.67 in 10.0 mi SE 15.0 mph 27.6 mph 0.00 in   Overcast
7:56 PM 39.9 °F 30.8 °F 37.0 °F 89% 29.64 in 6.0 mi SSE 18.4 mph 23.0 mph 0.00 in Rain Light Rain
8:08 PM 39.9 °F 29.7 °F 37.0 °F 89% 29.60 in 9.0 mi SSE 23.0 mph 32.2 mph 0.00 in Rain Light Rain
8:22 PM 39.9 °F 30.8 °F 37.0 °F 89% 29.58 in 7.0 mi SE 18.4 mph 28.8 mph 0.01 in Rain Rain
8:56 PM 39.9 °F 30.0 °F 37.9 °F 93% 29.60 in 10.0 mi SSE 21.9 mph 36.8 mph 0.02 in   Overcast
9:07 PM 41.0 °F 31.6 °F 37.9 °F 89% 29.56 in 9.0 mi SSE 20.7 mph 34.5 mph 0.00 in Rain Light Rain
9:30 PM 41.0 °F 31.4 °F 37.9 °F 89% 29.55 in 9.0 mi SSE 21.9 mph 34.5 mph 0.01 in Rain Rain
9:56 PM 41.0 °F 31.4 °F 37.9 °F 89% 29.54 in 10.0 mi SE 21.9 mph 33.4 mph 0.03 in Rain Light Rain
10:40 PM 42.1 °F 33.6 °F 37.9 °F 85% 29.52 in 10.0 mi South 18.4 mph 31.1 mph 0.00 in Thunderstorm Overcast
10:48 PM 42.1 °F 34.2 °F 39.0 °F 89% 29.50 in 5.0 mi SSE 16.1 mph 27.6 mph 0.07 in Rain , Thunderstorm Heavy Thunderstorms and Rain
10:56 PM 42.1 °F 35.2 °F 39.0 °F 89% 29.55 in 6.0 mi South 12.7 mph 24.2 mph 0.10 in Rain , Thunderstorm Thunderstorms and Rain
11:13 PM 42.1 °F 34.2 °F 39.0 °F 89% 29.50 in 6.0 mi SSE 16.1 mph 27.6 mph 0.06 in Rain , Thunderstorm Thunderstorms and Rain
11:24 PM 42.1 °F 34.9 °F 39.0 °F 89% 29.49 in 8.0 mi SSE 13.8 mph 26.5 mph 0.10 in Rain Rain
11:31 PM 42.1 °F 35.2 °F 39.0 °F 89% 29.49 in 9.0 mi SSE 12.7 mph 21.9 mph 0.12 in Rain Rain
11:45 PM 43.0 °F 34.8 °F 39.0 °F 86% 29.46 in 10.0 mi SSE 18.4 mph 26.5 mph 0.12 in Rain Light Rain
11:53 PM 42.8 °F 35.4 °F 39.2 °F 87% 29.47 in 9.0 mi SSE 15.0 mph 26.5 mph 0.13 in Rain Rain
11:56 PM 42.1 °F 35.7 °F 39.0 °F 89% 29.52 in 9.0 mi South 11.5 mph 23.0 mph 0.14 in Rain Rain